| time (UTC) | temp F | wind direction | speed knots | gust knots | rain 1hr in | rain 24hr in | rain mn in | humidity % | barometer mb |
| 20260831172558 | 79 | 297 | 4.3 | 9.6 | 0.00 | 0.30 | 0.30 | 56 | 1012.4 |
| 20260831172057 | 78 | 299 | 2.6 | 7.0 | 0.00 | 0.30 | 0.30 | 56 | 1012.4 |
| 20260831171559 | 78 | 256 | 0.9 | 7.8 | 0.00 | 0.30 | 0.30 | 58 | 1012.5 |
| 20260831171055 | 78 | 261 | 1.7 | 7.8 | 0.00 | 0.30 | 0.30 | 60 | 1012.4 |
| 20260831170554 | 78 | 300 | 0.9 | 6.1 | 0.00 | 0.30 | 0.30 | 59 | 1012.4 |
| 20260831170052 | 77 | 211 | 1.7 | 8.7 | 0.00 | 0.30 | 0.30 | 58 | 1012.4 |
| 20260831165552 | 77 | 285 | 3.5 | 7.8 | 0.00 | 0.30 | 0.30 | 58 | 1012.3 |
| 20260831165051 | 77 | 230 | 2.6 | 7.8 | 0.00 | 0.30 | 0.30 | 58 | 1012.2 |
| 20260831164550 | 78 | 274 | 1.7 | 7.0 | 0.00 | 0.30 | 0.30 | 59 | 1012.3 |
| 20260831164048 | 77 | 243 | 1.7 | 5.2 | 0.00 | 0.30 | 0.30 | 59 | 1012.3 |
| 20260831163547 | 77 | 297 | 1.7 | 7.0 | 0.00 | 0.30 | 0.30 | 61 | 1012.3 |
| 20260831163046 | 77 | 276 | 1.7 | 7.0 | 0.00 | 0.30 | 0.30 | 60 | 1012.2 |
| 20260831162545 | 76 | 239 | 2.6 | 7.0 | 0.00 | 0.30 | 0.30 | 60 | 1012.3 |
| 20260831162048 | 76 | 241 | 2.6 | 8.7 | 0.00 | 0.30 | 0.30 | 59 | 1012.3 |
| 20260831161548 | 76 | 186 | 3.5 | 8.7 | 0.00 | 0.30 | 0.30 | 62 | 1012.3 |
| 20260831161042 | 76 | 254 | 0.9 | 3.5 | 0.00 | 0.30 | 0.30 | 63 | 1012.1 |
| 20260831160539 | 75 | 166 | 0.0 | 3.5 | 0.00 | 0.30 | 0.30 | 69 | 1012.2 |
| 20260831160039 | 74 | 220 | 0.9 | 5.2 | 0.00 | 0.30 | 0.30 | 63 | 1012.4 |
| 20260831155537 | 74 | 225 | 1.7 | 5.2 | 0.00 | 0.30 | 0.30 | 65 | 1012.5 |
| 20260831155036 | 74 | 237 | 0.0 | 4.3 | 0.00 | 0.30 | 0.30 | 66 | 1012.5 |
| 20260831154540 | 73 | 229 | 1.7 | 5.2 | 0.00 | 0.30 | 0.30 | 67 | 1012.5 |
| 20260831154033 | 72 | 285 | 2.6 | 5.2 | 0.00 | 0.30 | 0.30 | 70 | 1012.5 |
| 20260831153535 | 72 | 239 | 0.9 | 4.3 | 0.00 | 0.30 | 0.30 | 72 | 1012.4 |
| 20260831153036 | 72 | 223 | 1.7 | 4.3 | 0.00 | 0.30 | 0.30 | 72 | 1012.4 |
| 20260831152528 | 72 | 267 | 1.7 | 4.3 | 0.00 | 0.30 | 0.30 | 71 | 1012.4 |
| 20260831152027 | 71 | 279 | 0.9 | 7.0 | 0.00 | 0.30 | 0.30 | 73 | 1012.2 |
| 20260831151526 | 71 | 286 | 1.7 | 7.0 | 0.00 | 0.30 | 0.30 | 73 | 1012.2 |
| 20260831151025 | 70 | 228 | 2.6 | 7.0 | 0.00 | 0.30 | 0.30 | 73 | 1012.3 |
| 20260831150523 | 70 | 221 | 1.7 | 5.2 | 0.00 | 0.30 | 0.30 | 75 | 1012.3 |
| 20260831150022 | 70 | 209 | 0.9 | 5.2 | 0.00 | 0.30 | 0.30 | 76 | 1012.4 |
| 20260831145521 | 69 | 283 | 1.7 | 5.2 | 0.00 | 0.30 | 0.30 | 76 | 1012.4 |
| 20260831145020 | 69 | 304 | 1.7 | 7.0 | 0.00 | 0.30 | 0.30 | 77 | 1012.3 |
| 20260831144517 | 69 | 271 | 0.9 | 7.0 | 0.00 | 0.30 | 0.30 | 78 | 1012.3 |
| 20260831144015 | 68 | 274 | 0.9 | 7.0 | 0.00 | 0.30 | 0.30 | 78 | 1012.4 |
| 20260831143519 | 68 | 240 | 0.9 | 7.8 | 0.00 | 0.30 | 0.30 | 80 | 1012.4 |
| 20260831143012 | 67 | 261 | 3.5 | 7.8 | 0.00 | 0.30 | 0.30 | 81 | 1012.3 |
| 20260831142512 | 67 | 285 | 1.7 | 7.8 | 0.00 | 0.30 | 0.30 | 82 | 1012.2 |
| 20260831142011 | 66 | 252 | 1.7 | 7.8 | 0.00 | 0.30 | 0.30 | 83 | 1012.2 |
| 20260831141507 | 66 | 273 | 0.9 | 6.1 | 0.00 | 0.30 | 0.30 | 84 | 1012.1 |
| 20260831141005 | 65 | 247 | 1.7 | 3.5 | 0.00 | 0.30 | 0.30 | 85 | 1011.9 |
| 20260831140505 | 65 | 250 | 0.0 | 5.2 | 0.00 | 0.30 | 0.30 | 85 | 1011.7 |
| 20260831140007 | 65 | 247 | 1.7 | 7.8 | 0.00 | 0.30 | 0.30 | 85 | 1011.6 |
| 20260831135503 | 64 | 292 | 0.0 | 7.8 | 0.00 | 0.30 | 0.30 | 86 | 1011.4 |
| 20260831135003 | 64 | 259 | 1.7 | 7.0 | 0.00 | 0.30 | 0.30 | 87 | 1011.3 |
| 20260831134502 | 64 | 250 | 0.0 | 3.5 | 0.00 | 0.30 | 0.30 | 87 | 1011.2 |
| 20260831134001 | 64 | 240 | 0.0 | 7.0 | 0.00 | 0.30 | 0.30 | 88 | 1011.1 |
| 20260831133500 | 64 | 274 | 2.6 | 7.0 | 0.00 | 0.30 | 0.30 | 89 | 1011.0 |
| 20260831133103 | 64 | 278 | 0.0 | 7.0 | 0.00 | 0.30 | 0.30 | 89 | 1011.0 |
| 20260831132559 | 63 | 254 | 1.7 | 7.0 | 0.00 | 0.30 | 0.30 | 90 | 1010.8 |
| 20260831132058 | 63 | 276 | 3.5 | 7.0 | 0.00 | 0.30 | 0.30 | 90 | 1010.7 |
| 20260831131604 | 63 | 278 | 0.9 | 7.0 | 0.00 | 0.30 | 0.30 | 91 | 1010.7 |
| 20260831131057 | 63 | 271 | 3.5 | 7.0 | 0.00 | 0.30 | 0.30 | 91 | 1010.6 |
| 20260831130557 | 63 | 276 | 1.7 | 6.1 | 0.00 | 0.30 | 0.30 | 92 | 1010.5 |
| 20260831130104 | 63 | 278 | 2.6 | 7.8 | 0.00 | 0.30 | 0.30 | 92 | 1010.6 |
| 20260831125556 | 63 | 266 | 4.3 | 7.8 | 0.00 | 0.30 | 0.30 | 92 | 1010.5 |
| 20260831125056 | 63 | 273 | 3.5 | 8.7 | 0.00 | 0.30 | 0.30 | 92 | 1010.5 |
| 20260831124602 | 63 | 260 | 1.7 | 8.7 | 0.00 | 0.30 | 0.30 | 93 | 1010.4 |
| 20260831124055 | 62 | 285 | 1.7 | 8.7 | 0.00 | 0.30 | 0.30 | 93 | 1010.4 |
| 20260831123553 | 62 | 255 | 2.6 | 7.8 | 0.00 | 0.30 | 0.30 | 93 | 1010.4 |
| 20260831123055 | 62 | 246 | 3.5 | 7.8 | 0.00 | 0.30 | 0.30 | 93 | 1010.2 |
| 20260831122550 | 62 | 282 | 2.6 | 7.0 | 0.00 | 0.30 | 0.30 | 94 | 1010.1 |
| 20260831122049 | 62 | 272 | 1.7 | 7.0 | 0.00 | 0.30 | 0.30 | 94 | 1009.9 |
| 20260831121550 | 62 | 286 | 2.6 | 9.6 | 0.00 | 0.30 | 0.30 | 94 | 1010.0 |
| 20260831121048 | 62 | 295 | 4.3 | 9.6 | 0.00 | 0.30 | 0.30 | 94 | 1010.0 |
| 20260831120549 | 63 | 259 | 4.3 | 9.6 | 0.00 | 0.30 | 0.30 | 94 | 1009.9 |
| 20260831120046 | 63 | 287 | 4.3 | 9.6 | 0.00 | 0.30 | 0.30 | 94 | 1009.8 |
| 20260831115544 | 63 | 241 | 5.2 | 9.6 | 0.00 | 0.30 | 0.30 | 94 | 1009.8 |
| 20260831115043 | 63 | 284 | 4.3 | 9.6 | 0.00 | 0.30 | 0.30 | 94 | 1009.6 |
| 20260831114551 | 63 | 255 | 5.2 | 9.6 | 0.00 | 0.30 | 0.30 | 94 | 1009.6 |
| 20260831114041 | 63 | 276 | 5.2 | 9.6 | 0.00 | 0.30 | 0.30 | 94 | 1009.4 |
| 20260831113540 | 63 | 271 | 3.5 | 9.6 | 0.00 | 0.30 | 0.30 | 94 | 1009.4 |
| 20260831113041 | 63 | 253 | 5.2 | 9.6 | 0.00 | 0.30 | 0.30 | 94 | 1009.3 |
| 20260831112538 | 64 | 274 | 5.2 | 10.4 | 0.00 | 0.30 | 0.30 | 93 | 1009.2 |
| 20260831112036 | 64 | 265 | 4.3 | 10.4 | 0.00 | 0.30 | 0.30 | 93 | 1009.0 |
| 20260831111535 | 64 | 270 | 4.3 | 8.7 | 0.00 | 0.30 | 0.30 | 93 | 1008.9 |
| 20260831111033 | 64 | 281 | 4.3 | 11.3 | 0.00 | 0.30 | 0.30 | 93 | 1008.9 |
| 20260831110533 | 64 | 281 | 5.2 | 11.3 | 0.00 | 0.30 | 0.30 | 93 | 1008.8 |
| 20260831110032 | 64 | 263 | 5.2 | 11.3 | 0.00 | 0.30 | 0.30 | 93 | 1008.8 |
| 20260831105532 | 64 | 297 | 4.3 | 10.4 | 0.00 | 0.30 | 0.30 | 93 | 1008.7 |
| 20260831105031 | 64 | 285 | 5.2 | 10.4 | 0.00 | 0.30 | 0.30 | 93 | 1008.6 |
| 20260831104537 | 65 | 250 | 4.3 | 10.4 | 0.00 | 0.30 | 0.30 | 93 | 1008.6 |
| 20260831104029 | 65 | 269 | 5.2 | 10.4 | 0.00 | 0.30 | 0.30 | 93 | 1008.6 |
| 20260831103528 | 65 | 288 | 6.1 | 12.2 | 0.00 | 0.30 | 0.30 | 93 | 1008.5 |
| 20260831103027 | 65 | 275 | 5.2 | 13.0 | 0.00 | 0.30 | 0.30 | 93 | 1008.5 |
| 20260831102529 | 65 | 247 | 7.0 | 13.0 | 0.00 | 0.30 | 0.30 | 93 | 1008.5 |
| 20260831102026 | 65 | 315 | 5.2 | 16.5 | 0.00 | 0.30 | 0.30 | 93 | 1008.5 |
| 20260831101526 | 65 | 315 | 7.0 | 16.5 | 0.00 | 0.30 | 0.30 | 93 | 1008.4 |
| 20260831101025 | 65 | 282 | 6.1 | 13.9 | 0.00 | 0.30 | 0.30 | 94 | 1008.3 |
| 20260831100524 | 65 | 283 | 7.0 | 15.6 | 0.00 | 0.30 | 0.30 | 94 | 1008.4 |
| 20260831100023 | 65 | 273 | 7.8 | 15.6 | 0.00 | 0.30 | 0.30 | 94 | 1008.4 |
| 20260831095524 | 65 | 242 | 6.1 | 12.2 | 0.00 | 0.30 | 0.30 | 94 | 1008.3 |
| 20260831095021 | 66 | 269 | 7.0 | 13.0 | 0.00 | 0.30 | 0.30 | 94 | 1008.2 |
| 20260831094520 | 66 | 276 | 5.2 | 13.0 | 0.00 | 0.30 | 0.30 | 93 | 1008.0 |
| 20260831094020 | 66 | 263 | 7.0 | 11.3 | 0.00 | 0.30 | 0.30 | 93 | 1008.0 |
| 20260831093526 | 66 | 273 | 6.1 | 13.9 | 0.01 | 0.30 | 0.30 | 93 | 1007.9 |
| 20260831093021 | 66 | 268 | 7.0 | 13.9 | 0.01 | 0.30 | 0.30 | 93 | 1007.8 |
| 20260831092517 | 66 | 284 | 6.1 | 13.0 | 0.01 | 0.30 | 0.30 | 93 | 1007.6 |
| 20260831092018 | 66 | 279 | 6.1 | 13.9 | 0.01 | 0.30 | 0.30 | 93 | 1007.6 |
| 20260831091513 | 66 | 263 | 5.2 | 13.9 | 0.01 | 0.30 | 0.30 | 93 | 1007.5 |
| 20260831091012 | 66 | 279 | 5.2 | 12.2 | 0.01 | 0.30 | 0.30 | 93 | 1007.3 |
| 20260831090513 | 67 | 283 | 4.3 | 9.6 | 0.01 | 0.30 | 0.30 | 93 | 1007.3 |
| 20260831090011 | 67 | 336 | 4.3 | 9.6 | 0.01 | 0.30 | 0.30 | 93 | 1007.3 |
| 20260831085510 | 67 | 290 | 5.2 | 13.9 | 0.01 | 0.30 | 0.30 | 93 | 1007.2 |
| 20260831085009 | 67 | 294 | 5.2 | 13.9 | 0.01 | 0.30 | 0.30 | 93 | 1007.2 |
| 20260831084507 | 68 | 269 | 5.2 | 12.2 | 0.01 | 0.30 | 0.30 | 94 | 1007.2 |
| 20260831084006 | 68 | 268 | 7.0 | 13.0 | 0.01 | 0.30 | 0.30 | 93 | 1007.0 |
| 20260831083504 | 68 | 279 | 7.0 | 13.0 | 0.00 | 0.28 | 0.28 | 94 | 1007.0 |
| 20260831083003 | 69 | 269 | 6.1 | 13.0 | 0.00 | 0.28 | 0.28 | 93 | 1007.0 |
| 20260831082502 | 69 | 268 | 7.0 | 13.9 | 0.00 | 0.28 | 0.28 | 94 | 1007.0 |
| 20260831082001 | 69 | 269 | 7.0 | 13.9 | 0.00 | 0.28 | 0.28 | 94 | 1007.0 |
| 20260831081601 | 70 | 262 | 6.1 | 12.2 | 0.00 | 0.28 | 0.28 | 94 | 1006.9 |
| 20260831081058 | 70 | 259 | 4.3 | 12.2 | 0.00 | 0.28 | 0.28 | 94 | 1006.9 |
| 20260831080556 | 71 | 244 | 4.3 | 12.2 | 0.00 | 0.28 | 0.28 | 95 | 1007.0 |
| 20260831080110 | 71 | 273 | 4.3 | 10.4 | 0.00 | 0.28 | 0.28 | 95 | 1006.9 |
| 20260831075557 | 72 | 261 | 4.3 | 10.4 | 0.00 | 0.28 | 0.28 | 95 | 1006.8 |
| 20260831075054 | 72 | 280 | 1.7 | 5.2 | 0.00 | 0.28 | 0.28 | 95 | 1006.8 |
| 20260831074602 | 72 | 224 | 1.7 | 5.2 | 0.00 | 0.28 | 0.28 | 95 | 1006.8 |
| 20260831074054 | 72 | 208 | 1.7 | 4.3 | 0.00 | 0.28 | 0.28 | 95 | 1006.6 |
| 20260831073554 | 72 | 200 | 1.7 | 3.5 | 0.00 | 0.28 | 0.28 | 95 | 1006.4 |
| 20260831073053 | 72 | 207 | 0.0 | 1.7 | 0.00 | 0.28 | 0.28 | 95 | 1006.0 |
| 20260831072553 | 72 | 207 | 0.0 | 1.7 | 0.00 | 0.28 | 0.28 | 95 | 1006.1 |
| 20260831072052 | 72 | 208 | 0.0 | 2.6 | 0.00 | 0.28 | 0.28 | 95 | 1006.0 |
| 20260831071604 | 72 | 207 | 0.9 | 2.6 | 0.00 | 0.28 | 0.28 | 95 | 1005.9 |
| 20260831071052 | 73 | 207 | 0.0 | 3.5 | 0.00 | 0.28 | 0.28 | 95 | 1005.8 |
| 20260831070551 | 73 | 208 | 1.7 | 3.5 | 0.00 | 0.28 | 0.28 | 95 | 1006.3 |
| 20260831070052 | 73 | 209 | 0.9 | 2.6 | 0.00 | 0.28 | 0.28 | 95 | 1006.3 |
| 20260831065551 | 73 | 209 | 0.0 | 0.0 | 0.00 | 0.28 | 0.28 | 94 | 1006.3 |
| 20260831065051 | 73 | 209 | 0.0 | 2.6 | 0.00 | 0.28 | 0.28 | 94 | 1006.3 |
| 20260831064550 | 73 | 209 | 0.0 | 3.5 | 0.00 | 0.28 | 0.28 | 94 | 1006.4 |
| 20260831064050 | 73 | 208 | 0.9 | 4.3 | 0.00 | 0.28 | 0.28 | 94 | 1006.3 |
| 20260831063550 | 73 | 213 | 0.9 | 4.3 | 0.00 | 0.28 | 0.28 | 94 | 1006.3 |
| 20260831063049 | 73 | 245 | 0.0 | 4.3 | 0.00 | 0.28 | 0.28 | 94 | 1006.2 |
| 20260831062553 | 73 | 233 | 1.7 | 6.1 | 0.00 | 0.28 | 0.28 | 94 | 1006.3 |
| 20260831062049 | 73 | 225 | 2.6 | 7.8 | 0.15 | 0.28 | 0.28 | 94 | 1006.1 |
| 20260831061549 | 73 | 163 | 4.3 | 7.8 | 0.24 | 0.28 | 0.28 | 94 | 1006.3 |
| 20260831061049 | 73 | 196 | 2.6 | 8.7 | 0.24 | 0.28 | 0.28 | 94 | 1006.3 |
| 20260831060549 | 72 | 167 | 2.6 | 9.6 | 0.28 | 0.28 | 0.28 | 94 | 1006.2 |
| 20260831060100 | 72 | 205 | 0.9 | 6.1 | 0.28 | 0.28 | 0.28 | 94 | 1006.2 |
| 20260831055549 | 72 | 167 | 1.7 | 7.0 | 0.28 | 0.28 | 0.28 | 94 | 1006.3 |
| 20260831055048 | 72 | 173 | 0.9 | 7.0 | 0.28 | 0.28 | 0.28 | 94 | 1006.4 |
| 20260831054548 | 73 | 144 | 2.6 | 7.0 | 0.28 | 0.28 | 0.28 | 94 | 1006.3 |
| 20260831054048 | 73 | 185 | 1.7 | 13.0 | 0.28 | 0.28 | 0.28 | 94 | 1006.3 |
| 20260831053547 | 73 | 211 | 7.0 | 13.0 | 0.28 | 0.28 | 0.28 | 94 | 1005.9 |
| 20260831053055 | 73 | 134 | 2.6 | 6.1 | 0.28 | 0.28 | 0.28 | 93 | 1006.1 |
| 20260831052545 | 73 | 216 | 0.9 | 7.8 | 0.28 | 0.28 | 0.28 | 92 | 1006.4 |
| 20260831052042 | 73 | 329 | 3.5 | 7.8 | 0.13 | 0.13 | 0.13 | 92 | 1006.5 |
| 20260831051544 | 73 | 66 | 3.5 | 7.0 | 0.05 | 0.05 | 0.05 | 91 | 1004.8 |
| 20260831051040 | 74 | 133 | 1.7 | 5.2 | 0.04 | 0.04 | 0.04 | 90 | 1005.2 |
| 20260831050540 | 74 | 148 | 1.7 | 6.1 | 0.00 | 0.00 | 0.00 | 90 | 1005.5 |
| 20260831050057 | 74 | 157 | 2.6 | 6.1 | 0.00 | 0.00 | 0.00 | 89 | 1005.2 |
| 20260831045537 | 74 | 159 | 2.6 | 6.1 | 0.00 | 0.00 | 0.00 | 89 | 1005.5 |
| 20260831045038 | 74 | 155 | 0.0 | 4.3 | 0.00 | 0.00 | 0.00 | 89 | 1005.7 |
| 20260831044537 | 74 | 155 | 1.7 | 6.1 | 0.00 | 0.00 | 0.00 | 89 | 1005.6 |
| 20260831044037 | 74 | 141 | 1.7 | 6.1 | 0.00 | 0.00 | 0.00 | 89 | 1005.5 |
| 20260831043538 | 74 | 173 | 0.9 | 6.1 | 0.00 | 0.00 | 0.00 | 89 | 1005.6 |
| 20260831043043 | 74 | 121 | 3.5 | 6.1 | 0.00 | 0.00 | 0.00 | 89 | 1005.5 |
| 20260831042537 | 74 | 161 | 1.7 | 4.3 | 0.00 | 0.00 | 0.00 | 89 | 1005.6 |
| 20260831042037 | 74 | 153 | 1.7 | 6.1 | 0.00 | 0.00 | 0.00 | 89 | 1005.4 |
| 20260831041551 | 74 | 124 | 0.9 | 7.0 | 0.00 | 0.00 | 0.00 | 89 | 1005.3 |
| 20260831041037 | 74 | 158 | 2.6 | 7.0 | 0.00 | 0.00 | 0.00 | 89 | 1005.2 |
| 20260831040536 | 74 | 153 | 1.7 | 6.1 | 0.00 | 0.00 | 0.00 | 89 | 1005.1 |
| 20260831040036 | 74 | 129 | 1.7 | 7.0 | 0.00 | 0.00 | 0.00 | 89 | 1005.1 |
| 20260831035539 | 74 | 137 | 2.6 | 7.0 | 0.00 | 0.00 | 0.00 | 89 | 1005.1 |
| 20260831035035 | 74 | 135 | 2.6 | 7.0 | 0.00 | 0.00 | 0.00 | 88 | 1005.1 |
| 20260831034539 | 74 | 174 | 2.6 | 7.0 | 0.00 | 0.00 | 0.00 | 88 | 1005.3 |
| 20260831034035 | 74 | 144 | 0.9 | 6.1 | 0.00 | 0.00 | 0.00 | 88 | 1005.5 |
| 20260831033539 | 75 | 157 | 2.6 | 6.1 | 0.00 | 0.00 | 0.00 | 88 | 1005.6 |
| 20260831033036 | 75 | 163 | 1.7 | 7.0 | 0.00 | 0.00 | 0.00 | 87 | 1005.8 |
| 20260831032534 | 75 | 148 | 1.7 | 7.0 | 0.00 | 0.00 | 0.00 | 87 | 1005.8 |
| 20260831032037 | 75 | 152 | 3.5 | 7.8 | 0.00 | 0.00 | 0.00 | 87 | 1005.9 |
| 20260831031545 | 75 | 153 | 4.3 | 8.7 | 0.00 | 0.00 | 0.00 | 87 | 1005.9 |
| 20260831031033 | 75 | 102 | 4.3 | 8.7 | 0.00 | 0.00 | 0.00 | 86 | 1006.0 |
| 20260831030534 | 76 | 134 | 1.7 | 7.8 | 0.00 | 0.00 | 0.00 | 86 | 1006.0 |
| 20260831030036 | 76 | 159 | 2.6 | 7.0 | 0.00 | 0.00 | 0.00 | 86 | 1006.1 |
| 20260831025534 | 76 | 138 | 2.6 | 7.8 | 0.00 | 0.00 | 0.00 | 85 | 1006.2 |
| 20260831025034 | 76 | 136 | 2.6 | 7.8 | 0.00 | 0.00 | 0.00 | 85 | 1006.2 |
| 20260831024533 | 76 | 142 | 0.9 | 7.0 | 0.00 | 0.00 | 0.00 | 85 | 1006.4 |
| 20260831024032 | 76 | 136 | 3.5 | 7.0 | 0.00 | 0.00 | 0.00 | 85 | 1006.4 |
| 20260831023534 | 76 | 165 | 2.6 | 6.1 | 0.00 | 0.00 | 0.00 | 84 | 1006.3 |
| 20260831023033 | 77 | 144 | 1.7 | 7.0 | 0.00 | 0.00 | 0.00 | 84 | 1006.3 |
| 20260831022532 | 77 | 130 | 0.0 | 7.0 | 0.00 | 0.00 | 0.00 | 84 | 1006.4 |
| 20260831022032 | 77 | 158 | 1.7 | 7.0 | 0.00 | 0.00 | 0.00 | 84 | 1006.5 |
| 20260831021533 | 77 | 148 | 2.6 | 7.0 | 0.00 | 0.00 | 0.00 | 84 | 1006.4 |
| 20260831021032 | 77 | 147 | 3.5 | 8.7 | 0.00 | 0.00 | 0.00 | 84 | 1006.2 |
| 20260831020534 | 77 | 155 | 2.6 | 8.7 | 0.00 | 0.00 | 0.00 | 83 | 1006.2 |
| 20260831020034 | 77 | 159 | 3.5 | 9.6 | 0.00 | 0.00 | 0.00 | 83 | 1006.1 |
| 20260831015536 | 77 | 166 | 4.3 | 10.4 | 0.00 | 0.00 | 0.00 | 83 | 1006.0 |
| 20260831015032 | 78 | 157 | 3.5 | 10.4 | 0.00 | 0.00 | 0.00 | 83 | 1006.0 |
| 20260831014537 | 78 | 163 | 5.2 | 9.6 | 0.00 | 0.00 | 0.00 | 82 | 1005.9 |
| 20260831014031 | 78 | 132 | 4.3 | 9.6 | 0.00 | 0.00 | 0.00 | 82 | 1005.8 |
| 20260831013531 | 78 | 177 | 3.5 | 9.6 | 0.00 | 0.00 | 0.00 | 82 | 1005.6 |
| 20260831013040 | 78 | 153 | 5.2 | 9.6 | 0.00 | 0.00 | 0.00 | 82 | 1005.3 |
| 20260831012531 | 78 | 138 | 1.7 | 7.8 | 0.00 | 0.00 | 0.00 | 82 | 1005.2 |
| 20260831012031 | 78 | 144 | 1.7 | 7.8 | 0.00 | 0.00 | 0.00 | 82 | 1005.1 |
| 20260831011531 | 78 | 130 | 2.6 | 7.0 | 0.00 | 0.00 | 0.00 | 81 | 1005.1 |
| 20260831011029 | 78 | 156 | 1.7 | 8.7 | 0.00 | 0.00 | 0.00 | 81 | 1005.2 |
| 20260831010530 | 78 | 148 | 3.5 | 8.7 | 0.00 | 0.00 | 0.00 | 81 | 1005.1 |
| 20260831010030 | 78 | 129 | 1.7 | 9.6 | 0.00 | 0.00 | 0.00 | 81 | 1005.0 |
| 20260831005530 | 78 | 70 | 4.3 | 9.6 | 0.00 | 0.00 | 0.00 | 80 | 1005.0 |
| 20260831005030 | 79 | 355 | 2.6 | 8.7 | 0.00 | 0.00 | 0.00 | 80 | 1004.9 |
| 20260831004529 | 79 | 138 | 2.6 | 11.3 | 0.00 | 0.00 | 0.00 | 80 | 1004.9 |
| 20260831004030 | 79 | 121 | 4.3 | 11.3 | 0.00 | 0.00 | 0.00 | 79 | 1005.0 |
| 20260831003531 | 79 | 43 | 3.5 | 9.6 | 0.00 | 0.00 | 0.00 | 78 | 1005.0 |
| 20260831003028 | 80 | 49 | 4.3 | 12.2 | 0.00 | 0.00 | 0.00 | 78 | 1005.0 |
| 20260831002527 | 80 | 118 | 6.1 | 12.2 | 0.00 | 0.00 | 0.00 | 78 | 1005.0 |
| 20260831002030 | 80 | 153 | 5.2 | 10.4 | 0.00 | 0.00 | 0.00 | 78 | 1005.0 |
| 20260831001533 | 80 | 107 | 4.3 | 12.2 | 0.00 | 0.00 | 0.00 | 78 | 1005.2 |
| 20260831001027 | 80 | 151 | 4.3 | 10.4 | 0.00 | 0.00 | 0.00 | 78 | 1005.2 |
| 20260831000526 | 80 | 119 | 5.2 | 10.4 | 0.00 | 0.00 | 0.00 | 78 | 1005.3 |
| 20260831000024 | 80 | 131 | 3.5 | 9.6 | 0.00 | 0.00 | 0.00 | 78 | 1005.5 |
| 20260830235525 | 80 | 335 | 4.3 | 9.6 | 0.00 | 0.00 | 0.00 | 77 | 1005.6 |
| 20260830235028 | 80 | 149 | 4.3 | 12.2 | 0.00 | 0.00 | 0.00 | 77 | 1005.6 |
| 20260830234525 | 80 | 104 | 5.2 | 12.2 | 0.00 | 0.00 | 0.00 | 77 | 1005.7 |
| 20260830234024 | 80 | 83 | 4.3 | 12.2 | 0.00 | 0.00 | 0.00 | 76 | 1005.7 |
| 20260830233527 | 80 | 80 | 3.5 | 12.2 | 0.00 | 0.00 | 0.00 | 76 | 1005.5 |
| 20260830233022 | 81 | 141 | 5.2 | 12.2 | 0.00 | 0.00 | 0.00 | 75 | 1005.6 |
| 20260830232522 | 81 | 24 | 4.3 | 12.2 | 0.00 | 0.00 | 0.00 | 75 | 1005.7 |
| 20260830232025 | 81 | 9 | 5.2 | 13.0 | 0.00 | 0.00 | 0.00 | 75 | 1005.7 |
| 20260830231520 | 81 | 142 | 6.1 | 13.0 | 0.00 | 0.00 | 0.00 | 75 | 1005.6 |
| 20260830231021 | 81 | 145 | 6.1 | 12.2 | 0.00 | 0.00 | 0.00 | 76 | 1005.6 |
| 20260830230520 | 81 | 89 | 6.1 | 12.2 | 0.00 | 0.00 | 0.00 | 75 | 1005.7 |
| 20260830230020 | 81 | 52 | 5.2 | 12.2 | 0.00 | 0.00 | 0.00 | 75 | 1005.6 |
| 20260830225519 | 80 | 74 | 5.2 | 13.9 | 0.00 | 0.00 | 0.00 | 76 | 1005.6 |
| 20260830225021 | 80 | 45 | 5.2 | 13.9 | 0.00 | 0.00 | 0.00 | 76 | 1005.7 |
| 20260830224519 | 80 | 68 | 4.3 | 13.0 | 0.00 | 0.00 | 0.00 | 76 | 1005.8 |
| 20260830224021 | 80 | 34 | 6.1 | 13.0 | 0.00 | 0.00 | 0.00 | 76 | 1005.8 |
| 20260830223517 | 80 | 78 | 3.5 | 9.6 | 0.00 | 0.00 | 0.00 | 77 | 1005.9 |
| 20260830223023 | 80 | 130 | 3.5 | 11.3 | 0.00 | 0.00 | 0.00 | 76 | 1006.0 |
| 20260830222516 | 80 | 131 | 4.3 | 13.0 | 0.00 | 0.00 | 0.00 | 76 | 1006.1 |
| 20260830222019 | 80 | 71 | 5.2 | 13.0 | 0.00 | 0.00 | 0.00 | 76 | 1006.2 |
| 20260830221518 | 80 | 140 | 6.1 | 11.3 | 0.00 | 0.00 | 0.00 | 76 | 1006.3 |
| 20260830221015 | 80 | 64 | 3.5 | 10.4 | 0.00 | 0.00 | 0.00 | 76 | 1006.2 |
| 20260830220514 | 80 | 92 | 6.1 | 9.6 | 0.00 | 0.00 | 0.00 | 75 | 1006.4 |
| 20260830220014 | 80 | 89 | 4.3 | 13.0 | 0.00 | 0.00 | 0.00 | 75 | 1006.5 |
| 20260830215514 | 81 | 69 | 6.1 | 13.0 | 0.00 | 0.00 | 0.00 | 75 | 1006.5 |
| 20260830215013 | 80 | 103 | 7.0 | 13.0 | 0.00 | 0.00 | 0.00 | 76 | 1006.4 |
| 20260830214517 | 80 | 82 | 7.8 | 13.0 | 0.00 | 0.00 | 0.00 | 76 | 1006.5 |
| 20260830214011 | 80 | 103 | 5.2 | 11.3 | 0.00 | 0.00 | 0.00 | 75 | 1006.5 |
| 20260830213514 | 80 | 107 | 6.1 | 13.9 | 0.00 | 0.00 | 0.00 | 75 | 1006.6 |
| 20260830213010 | 80 | 52 | 6.1 | 13.9 | 0.00 | 0.00 | 0.00 | 75 | 1006.6 |
| 20260830212510 | 80 | 81 | 6.1 | 13.9 | 0.00 | 0.00 | 0.00 | 75 | 1006.7 |
| 20260830212010 | 79 | 82 | 7.0 | 13.9 | 0.00 | 0.00 | 0.00 | 77 | 1006.8 |
| 20260830211511 | 79 | 97 | 6.1 | 11.3 | 0.00 | 0.00 | 0.00 | 76 | 1006.8 |
| 20260830211008 | 79 | 71 | 6.1 | 11.3 | 0.00 | 0.00 | 0.00 | 76 | 1006.9 |
| 20260830210508 | 79 | 56 | 5.2 | 13.0 | 0.00 | 0.00 | 0.00 | 75 | 1006.9 |
| 20260830210008 | 80 | 112 | 4.3 | 13.0 | 0.00 | 0.00 | 0.00 | 75 | 1006.9 |
| 20260830205510 | 80 | 79 | 6.1 | 11.3 | 0.00 | 0.00 | 0.00 | 75 | 1007.0 |
| 20260830205007 | 80 | 53 | 4.3 | 12.2 | 0.00 | 0.00 | 0.00 | 75 | 1007.1 |
| 20260830204507 | 80 | 83 | 6.1 | 14.8 | 0.00 | 0.00 | 0.00 | 76 | 1007.2 |
| 20260830204005 | 80 | 103 | 7.0 | 14.8 | 0.00 | 0.00 | 0.00 | 75 | 1007.1 |
| 20260830203504 | 80 | 100 | 7.0 | 13.9 | 0.00 | 0.00 | 0.00 | 75 | 1007.1 |
| 20260830203013 | 80 | 98 | 6.1 | 13.0 | 0.00 | 0.00 | 0.00 | 76 | 1007.2 |
| 20260830202504 | 80 | 108 | 7.0 | 13.0 | 0.00 | 0.00 | 0.00 | 76 | 1007.2 |
| 20260830202003 | 79 | 105 | 7.8 | 12.2 | 0.00 | 0.00 | 0.00 | 77 | 1007.2 |
| 20260830201502 | 79 | 98 | 7.0 | 12.2 | 0.00 | 0.00 | 0.00 | 77 | 1007.3 |
| 20260830201003 | 79 | 35 | 5.2 | 12.2 | 0.00 | 0.00 | 0.00 | 76 | 1007.5 |
| 20260830200601 | 79 | 57 | 7.0 | 12.2 | 0.00 | 0.00 | 0.00 | 76 | 1007.6 |
| 20260830200113 | 78 | 64 | 5.2 | 13.0 | 0.00 | 0.00 | 0.00 | 78 | 1007.7 |
| 20260830195559 | 77 | 82 | 7.8 | 13.0 | 0.00 | 0.00 | 0.00 | 78 | 1007.9 |
| 20260830195056 | 77 | 91 | 5.2 | 10.4 | 0.00 | 0.00 | 0.00 | 78 | 1008.1 |
| 20260830194630 | 77 | 88 | 5.2 | 10.4 | 0.00 | 0.00 | 0.00 | 78 | 1008.3 |
| 20260830194057 | 77 | 87 | 3.5 | 9.6 | 0.00 | 0.00 | 0.00 | 78 | 1008.3 |
| 20260830193559 | 78 | 59 | 4.3 | 8.7 | 0.00 | 0.00 | 0.00 | 78 | 1008.4 |
| 20260830193056 | 78 | 44 | 3.5 | 9.6 | 0.00 | 0.00 | 0.00 | 78 | 1008.3 |
| 20260830192555 | 78 | 58 | 5.2 | 9.6 | 0.00 | 0.00 | 0.00 | 76 | 1008.4 |
| 20260830192054 | 78 | 132 | 3.5 | 8.7 | 0.00 | 0.00 | 0.00 | 77 | 1008.5 |
| 20260830191600 | 78 | 83 | 3.5 | 8.7 | 0.00 | 0.00 | 0.00 | 78 | 1008.5 |
| 20260830191057 | 77 | 157 | 3.5 | 10.4 | 0.00 | 0.00 | 0.00 | 78 | 1008.5 |
| 20260830190555 | 77 | 88 | 3.5 | 10.4 | 0.00 | 0.00 | 0.00 | 78 | 1008.6 |
| 20260830190056 | 77 | 38 | 4.3 | 10.4 | 0.00 | 0.00 | 0.00 | 78 | 1008.5 |
| 20260830185555 | 78 | 82 | 3.5 | 8.7 | 0.00 | 0.00 | 0.00 | 77 | 1008.5 |
| 20260830185054 | 78 | 161 | 4.3 | 13.9 | 0.00 | 0.00 | 0.00 | 77 | 1008.4 |
| 20260830184555 | 78 | 121 | 5.2 | 13.9 | 0.00 | 0.00 | 0.00 | 77 | 1008.3 |
| 20260830184054 | 78 | 141 | 4.3 | 12.2 | 0.00 | 0.00 | 0.00 | 78 | 1008.3 |
| 20260830183558 | 78 | 131 | 4.3 | 9.6 | 0.00 | 0.00 | 0.00 | 77 | 1008.3 |
| 20260830183100 | 78 | 121 | 2.6 | 9.6 | 0.00 | 0.00 | 0.00 | 77 | 1008.2 |
| 20260830182556 | 78 | 144 | 3.5 | 12.2 | 0.00 | 0.00 | 0.00 | 76 | 1008.2 |
| 20260830182053 | 79 | 92 | 6.1 | 15.6 | 0.00 | 0.00 | 0.00 | 75 | 1008.3 |
| 20260830181553 | 79 | 127 | 9.6 | 15.6 | 0.00 | 0.00 | 0.00 | 74 | 1008.5 |
| 20260830181054 | 80 | 149 | 4.3 | 10.4 | 0.00 | 0.00 | 0.00 | 74 | 1008.4 |
| 20260830180551 | 79 | 107 | 3.5 | 10.4 | 0.00 | 0.00 | 0.00 | 75 | 1008.5 |
| 20260830180049 | 78 | 140 | 2.6 | 8.7 | 0.00 | 0.00 | 0.00 | 78 | 1008.4 |
| 20260830175548 | 77 | 157 | 2.6 | 8.7 | 0.00 | 0.00 | 0.00 | 77 | 1008.4 |
| 20260830175049 | 78 | 46 | 3.5 | 9.6 | 0.00 | 0.00 | 0.00 | 76 | 1008.4 |
| 20260830174554 | 78 | 163 | 4.3 | 10.4 | 0.00 | 0.00 | 0.00 | 77 | 1008.5 |
| 20260830174052 | 78 | 75 | 4.3 | 12.2 | 0.00 | 0.00 | 0.00 | 77 | 1008.5 |
| 20260830173548 | 78 | 82 | 4.3 | 11.3 | 0.00 | 0.00 | 0.00 | 76 | 1008.7 |
| 20260830173103 | 77 | 150 | 5.2 | 9.6 | 0.00 | 0.00 | 0.00 | 79 | 1008.6 |